Simultaneous Nadir Overpasses (SNOs) Predictions

Prediction of SNOs between NOAA-20 and AQUA Satellite Orbit:

Table of predicted SNOs for the next 14.0 days since TLE Epoch: 9/11/2021
Index Date (NOAA-20) Time (NOAA-20) Lat,Lon (NOAA-20) SZA (NOAA-20 ) Date (AQUA) Time (AQUA) Lat,Lon (AQUA) SZA (AQUA ) Distance(km) Time Diff (sec)
1 09/12/2021 13:39:38 -76.00, 33.96 86.84 09/12/2021 13:40:24 -76.00, 33.94 86.88 0.74 46
2 09/12/2021 14:30:05 76.77,-155.91 92.23 09/12/2021 14:29:33 76.78,-155.84 92.24 2.00 32
3 09/15/2021 05:56:25 -76.30, 150.78 86.25 09/15/2021 05:56:46 -76.30, 150.76 86.26 0.60 21
4 09/15/2021 06:46:52 77.06, -38.98 92.83 09/15/2021 06:45:55 77.07, -38.91 92.86 1.92 57
5 09/17/2021 21:22:53 75.40, 96.27 95.77 09/17/2021 21:24:05 75.41, 96.33 95.69 2.01 72
6 09/17/2021 22:13:11 -76.68, -92.03 85.75 09/17/2021 22:13:07 -76.68, -92.08 85.74 1.38 4
7 09/20/2021 13:39:37 75.89,-146.41 96.16 09/20/2021 13:40:24 75.89,-146.38 96.12 0.65 47
8 09/20/2021 14:30:05 -76.71, 23.82 84.81 09/20/2021 14:29:35 -76.71, 23.93 84.81 2.82 30
9 09/23/2021 05:56:20 76.41, -28.82 96.51 09/23/2021 05:56:42 76.41, -28.88 96.50 1.65 22



Historial Predications of SNOs between NOAA-20 and AQUA
